Wind_Speed
5 5 4 5 5 5 5 5 5 6 6 6 6 5 4 4 5 6 7 7 6 8 9 9 10 10 10 10 10 10 11 11 12 12 12 11 10 10 11 10 9 9 8
4 4 3 3 3 4 4 4 3 4 5 5 5 4 4 4 4 5 5 6 6 6 7 9 9 10 9 10 11 11 11 12 13 13 14 13 13 12 11 12 11 11 10
4 3 2 1 1 1 1 1 1 2 3 3 3 3 2 2 2 3 4 5 6 6 7 7 8 9 10 10 11 11 12 12 12 13 15 15 15 15 14 13 13 13 12
4 3 2 2 1 1 1 1 1 1 2 2 3 3 2 2 2 2 2 3 4 5 6 7 7 8 9 11 12 12 12 12 13 14 14 16 17 17 16 15 15 14 15
4 3 3 3 2 2 2 2 2 2 2 3 4 3 3 2 1 1 2 2 3 3 4 6 7 7 8 10 11 12 13 13 13 14 15 16 18 18 18 17 17 17 16
5 4 4 4 3 3 3 3 3 3 4 4 4 5 5 4 3 2 1 1 1 2 3 4 5 6 7 8 9 11 12 13 14 14 15 16 18 19 18 18 18 18 18
6 6 5 5 4 4 4 5 5 5 5 5 5 5 5 5 5 4 3 2 1 2 2 3 4 5 6 7 7 9 11 13 13 13 14 15 17 19 20 20 19 20 20
7 7 6 6 5 5 5 5 5 5 6 6 6 6 6 6 6 5 4 3 3 2 2 3 3 4 5 6 7 7 9 11 12 13 13 15 16 17 19 21 20 20 21
8 8 7 6 6 5 4 4 4 4 4 5 5 5 5 6 6 6 5 4 4 3 2 2 3 4 5 5 6 6 7 9 11 12 12 13 15 16 18 20 22 22 21
9 9 8 7 6 5 4 3 2 3 3 4 4 4 5 5 5 6 6 5 4 4 3 3 3 4 5 5 6 7 8 9 10 11 12 13 14 15 16 18 20 22 22
10 9 8 8 7 6 4 3 1 1 1 2 3 4 4 4 4 5 5 5 5 4 4 4 4 5 5 5 6 7 8 9 10 11 12 13 14 15 16 18 19 21 23
11 10 9 9 8 7 5 4 3 2 2 3 3 4 4 5 5 5 5 5 6 6 6 6 6 6 6 6 7 7 8 9 10 11 12 14 14 16 16 17 19 21 22
12 11 10 10 9 8 7 6 5 5 5 5 5 6 6 6 6 6 6 7 7 7 8 8 8 8 8 8 9 9 10 11 12 12 13 14 15 16 17 18 20 21 22
13 13 13 12 12 11 10 10 9 8 8 8 8 9 9 9 9 9 9 9 9 9 10 10 10 10 11 11 11 12 12 12 13 14 15 15 17 18 19 20 20 22 23
15 15 15 14 14 14 13 13 12 12 12 12 12 12 12 12 12 12 12 12 12 12 12 12 13 13 14 14 14 14 14 15 15 15 16 17 18 19 20 22 22 23 24
17 17 17 17 17 17 16 16 16 16 16 15 15 15 15 15 15 16 16 16 15 15 15 15 15 16 16 17 17 17 17 17 18 18 18 19 19 20 21 22 23 25 25
19 19 19 19 19 19 19 19 19 19 19 19 19 19 18 18 18 18 19 19 19 19 19 18 18 19 19 19 20 20 20 20 20 21 21 21 21 22 22 23 24 25 26
21 21 21 21 22 22 22 21 22 22 22 22 22 22 21 21 21 21 21 22 22 22 22 22 22 22 22 22 23 23 23 23 23 23 24 24 24 24 25 25 26 26 27
22 23 23 24 24 24 24 24 24 24 24 24 24 24 24 24 24 24 24 24 25 25 25 25 25 25 25 25 25 26 26 26 26 26 27 27 27 28 28 28 28 28 29
24 25 25 26 27 27 27 27 27 27 27 27 27 27 27 27 27 28 27 28 28 28 28 28 28 28 28 28 28 29 29 29 30 30 30 30 30 31 31 31 31 31 31
26 27 27 28 29 29 29 30 30 30 30 30 30 30 30 30 30 31 31 31 31 31 31 31 30 31 31 32 32 32 32 32 33 33 33 33 34 34 34 34 33 34 34
27 27 29 31 31 31 31 32 32 32 32 32 32 32 32 33 34 34 35 35 35 34 34 34 34 34 35 35 35 35 35 35 35 36 36 36 37 37 37 37 37 37 37
27 29 30 32 32 33 33 34 35 34 33 33 33 34 35 35 36 37 37 37 37 37 37 38 38 38 38 39 40 39 40 40 39 40 41 39 40 40 40 40 40 40 39
27 29 29 31 32 33 33 33 34 34 34 34 35 35 35 36 37 38 38 38 38 39 40 41 41 41 42 42 43 43 44 44 44 44 45 44 43 44 44 43 43 43 42
29 31 32 32 31 32 32 33 34 34 34 35 36 36 38 39 39 40 41 41 40 41 43 44 44 44 45 46 47 47 47 48 46 46 47 47 46 47 47 46 46 46 45
28 30 30 31 31 31 32 34 34 35 35 36 37 38 38 40 41 42 43 43 43 43 44 45 46 46 47 48 50 51 51 52 51 50 50 51 51 51 50 49 49 49 48
Wind_Direction
257 263 275 282 284 285 287 288 284 286 290 294 296 298 290 269 265 264 262 257 242 235 234 233 235 236 235 234 236 237 238 237 235 233 233 233 232 230 229 229 230 231 231
242 254 268 276 281 287 292 292 290 291 299 301 300 304 295 267 258 262 260 251 243 243 241 237 236 236 235 236 240 240 239 240 239 237 235 235 234 232 232 232 233 234 235
229 233 237 246 249 278 318 329 328 323 322 326 324 320 310 285 261 264 264 248 247 252 245 235 235 236 239 242 244 244 243 242 243 240 238 237 236 236 236 236 237 236 236
213 209 190 174 158 129 67 29 24 9 5 6 359 351 343 330 286 273 268 248 247 249 244 239 239 243 248 248 248 248 248 247 246 243 242 239 238 237 237 238 240 239 237
197 185 165 152 134 116 97 78 61 45 40 36 34 31 25 19 349 315 270 255 255 250 252 247 243 247 251 252 252 250 249 249 248 245 245 242 240 240 240 239 240 241 240
181 171 160 148 129 115 104 92 77 68 60 54 47 44 42 38 30 26 3 300 273 267 270 267 253 252 256 258 257 252 250 249 250 249 248 247 244 242 241 240 241 242 241
171 167 160 148 133 120 109 97 88 82 69 62 56 50 47 45 47 47 41 27 340 302 280 276 268 264 262 261 260 255 251 251 252 253 251 249 247 245 243 244 244 243 242
172 168 161 148 140 129 116 105 92 85 73 64 58 53 49 47 46 45 43 35 21 2 326 291 279 277 271 267 267 263 256 251 251 254 253 251 250 248 246 244 244 245 244
178 175 170 161 154 146 131 112 94 80 70 62 54 49 42 35 32 34 28 22 19 17 1 333 306 295 285 276 271 269 268 261 254 252 251 254 252 251 250 247 246 247 247
184 183 183 178 174 167 155 137 109 83 72 58 49 43 38 30 22 17 16 11 7 4 355 345 331 314 301 287 275 270 270 268 264 257 256 256 256 255 253 251 249 247 247
190 191 193 193 193 191 188 183 168 102 60 37 27 23 19 14 11 3 360 359 357 350 340 330 321 313 307 299 287 280 276 272 267 263 260 260 258 257 256 254 253 251 250
199 200 203 205 206 207 210 214 225 254 296 321 331 341 344 342 344 341 336 335 334 331 327 322 315 308 303 299 294 289 285 282 276 271 267 265 263 260 259 257 255 255 254
209 211 214 217 219 221 226 235 248 265 279 292 302 311 317 319 319 319 318 317 316 314 313 312 308 304 300 296 293 291 287 284 281 277 273 269 266 264 262 260 258 258 257
220 224 226 229 232 236 241 247 255 264 274 282 290 298 303 306 306 307 307 307 305 303 301 299 297 296 297 296 293 291 289 286 283 280 277 274 270 267 265 264 263 261 259
228 231 233 236 240 244 249 254 260 266 272 278 283 289 293 296 298 298 297 296 296 296 296 295 292 291 290 290 290 289 288 286 284 282 279 276 274 271 269 266 265 264 263
233 235 238 242 246 250 253 257 263 267 271 275 278 282 286 288 291 293 294 293 291 290 290 290 288 287 286 285 285 284 284 284 284 283 281 278 276 274 273 271 268 266 264
237 240 243 246 250 254 257 260 264 268 271 274 277 279 282 285 287 289 289 290 289 288 287 286 285 285 284 283 281 281 281 281 281 281 280 279 278 275 273 272 271 269 266
241 244 248 251 254 257 260 263 265 267 270 273 275 277 279 281 282 284 286 286 286 286 286 286 284 283 282 282 281 279 278 278 279 279 279 278 277 276 274 272 271 270 268
245 248 251 254 256 258 261 263 265 268 270 272 274 275 277 278 279 281 282 282 283 283 284 284 284 283 282 281 281 279 278 277 278 278 278 277 277 275 274 273 272 271 269
248 249 250 254 257 260 262 265 267 268 270 272 273 274 275 276 278 279 280 281 281 282 282 282 282 282 281 281 280 279 278 278 278 278 277 276 276 275 274 273 272 271 270
252 250 252 256 259 261 263 264 265 267 269 271 272 273 274 275 277 278 279 279 280 281 281 280 280 280 280 280 279 277 277 278 279 278 277 276 275 274 274 273 272 271 270
254 256 257 259 261 262 264 265 266 267 270 271 272 273 275 275 276 278 278 279 279 279 279 279 278 278 278 279 278 278 277 277 277 277 276 275 273 272 272 272 272 271 270
259 260 262 262 264 264 265 267 267 267 271 271 271 274 274 275 275 276 277 278 278 278 278 277 276 277 276 277 277 278 277 276 275 275 275 274 272 271 270 270 270 270 270
266 267 269 267 266 266 267 268 270 269 271 271 272 274 275 276 276 276 277 277 277 277 277 276 276 276 276 277 277 277 277 276 276 275 274 272 271 270 269 269 269 268 268
268 267 268 269 268 268 269 271 273 271 271 272 270 273 275 274 274 275 275 275 275 275 275 276 276 277 277 277 277 277 277 276 275 275 274 273 271 269 268 268 268 268 267
275 273 273 273 273 272 273 272 272 272 272 271 271 273 274 274 274 274 275 275 275 275 275 276 277 277 277 277 277 277 277 276 275 274 274 274 272 270 268 268 267 267 266
Height
5881 5881 5881 5880 5879 5878 5878 5877 5877 5876 5875 5874 5874 5874 5874 5875 5875 5875 5875 5876 5877 5877 5878 5879 5880 5881 5882 5884 5885 5885 5886 5888 5889 5890 5892 5893 5894 5895 5896 5897 5898 5899 5900
5880 5880 5880 5879 5878 5878 5877 5876 5876 5875 5874 5873 5873 5873 5873 5873 5874 5874 5874 5874 5875 5875 5876 5877 5878 5879 5880 5881 5882 5883 5884 5885 5886 5888 5889 5891 5892 5893 5894 5895 5897 5898 5898
5879 5879 5879 5878 5878 5877 5876 5876 5875 5875 5874 5873 5873 5872 5872 5872 5872 5873 5872 5872 5873 5874 5874 5875 5876 5877 5878 5879 5880 5881 5882 5883 5884 5885 5886 5888 5889 5891 5892 5893 5894 5895 5896
5878 5878 5878 5878 5877 5877 5876 5876 5875 5875 5874 5873 5872 5872 5871 5871 5871 5871 5871 5871 5872 5872 5873 5873 5874 5875 5876 5876 5877 5878 5879 5880 5881 5882 5883 5884 5886 5888 5889 5890 5891 5893 5894
5877 5877 5877 5877 5877 5876 5876 5876 5875 5874 5874 5873 5872 5872 5871 5871 5871 5871 5871 5870 5871 5871 5871 5872 5872 5873 5873 5874 5874 5875 5876 5877 5878 5879 5880 5881 5883 5884 5886 5887 5888 5889 5891
5876 5876 5876 5877 5876 5876 5876 5876 5875 5874 5874 5873 5872 5872 5871 5871 5870 5870 5870 5870 5870 5870 5870 5870 5871 5871 5871 5871 5872 5872 5873 5874 5875 5876 5877 5878 5879 5881 5882 5883 5885 5886 5887
5875 5876 5876 5876 5876 5876 5876 5876 5875 5875 5874 5873 5873 5872 5872 5871 5871 5870 5870 5870 5869 5869 5869 5869 5869 5869 5869 5869 5869 5869 5870 5871 5872 5872 5873 5874 5875 5877 5878 5880 5881 5882 5883
5874 5875 5876 5876 5876 5876 5876 5876 5876 5875 5874 5873 5873 5872 5872 5872 5871 5870 5870 5870 5869 5868 5868 5868 5868 5868 5868 5868 5868 5867 5867 5868 5869 5869 5870 5871 5872 5872 5874 5875 5877 5878 5879
5873 5874 5875 5876 5876 5876 5876 5876 5876 5875 5875 5874 5873 5873 5872 5872 5871 5870 5870 5869 5869 5868 5868 5867 5867 5866 5866 5866 5866 5866 5866 5866 5866 5866 5867 5867 5868 5869 5870 5871 5872 5873 5874
5872 5873 5874 5875 5876 5876 5876 5876 5875 5875 5875 5874 5874 5873 5873 5872 5871 5870 5870 5869 5868 5868 5867 5866 5866 5865 5865 5864 5864 5864 5864 5864 5864 5864 5864 5864 5865 5865 5866 5866 5867 5869 5870
5871 5872 5873 5874 5874 5875 5875 5875 5875 5874 5874 5874 5873 5873 5872 5871 5871 5870 5869 5868 5867 5867 5866 5865 5865 5864 5863 5863 5862 5862 5861 5861 5861 5861 5861 5861 5861 5861 5862 5862 5863 5864 5865
5869 5871 5871 5872 5873 5873 5873 5873 5873 5873 5873 5873 5872 5872 5871 5870 5869 5869 5868 5867 5866 5865 5864 5864 5863 5862 5862 5861 5860 5860 5859 5859 5858 5858 5858 5858 5858 5858 5858 5858 5858 5859 5860
5867 5869 5870 5870 5871 5871 5871 5872 5871 5871 5871 5871 5870 5870 5869 5868 5867 5867 5866 5865 5864 5863 5862 5862 5861 5860 5859 5859 5858 5857 5856 5856 5855 5855 5854 5854 5854 5854 5854 5854 5854 5854 5854
5865 5866 5867 5868 5868 5869 5869 5869 5869 5868 5868 5868 5867 5867 5866 5865 5865 5864 5863 5862 5861 5861 5860 5859 5858 5857 5856 5855 5854 5854 5853 5852 5852 5851 5850 5850 5849 5849 5849 5849 5849 5849 5849
5862 5863 5864 5864 5865 5865 5865 5865 5865 5865 5865 5864 5864 5863 5862 5862 5861 5860 5859 5859 5858 5857 5856 5855 5854 5853 5852 5851 5850 5849 5849 5848 5847 5847 5846 5845 5844 5844 5843 5843 5843 5843 5843
5858 5859 5860 5860 5861 5861 5861 5861 5861 5861 5860 5860 5859 5859 5858 5857 5856 5856 5855 5854 5853 5853 5851 5850 5849 5848 5847 5846 5845 5844 5844 5843 5842 5841 5840 5840 5839 5838 5837 5837 5836 5836 5836
5853 5854 5855 5856 5856 5856 5856 5856 5856 5856 5855 5855 5854 5854 5853 5852 5851 5850 5849 5848 5848 5847 5846 5845 5844 5843 5842 5841 5840 5839 5838 5837 5836 5835 5834 5833 5833 5832 5831 5830 5830 5829 5829
5849 5850 5850 5851 5851 5851 5851 5850 5850 5850 5849 5849 5848 5848 5847 5846 5845 5844 5843 5842 5841 5840 5840 5838 5837 5836 5835 5834 5833 5832 5831 5830 5829 5828 5827 5826 5825 5824 5824 5823 5822 5822 5821
5843 5844 5844 5845 5845 5845 5844 5844 5844 5843 5843 5842 5842 5841 5840 5839 5838 5837 5836 5835 5834 5833 5832 5831 5830 5829 5828 5827 5825 5824 5823 5822 5821 5820 5819 5818 5817 5816 5815 5815 5814 5813 5813
5837 5837 5837 5838 5838 5837 5837 5837 5836 5836 5836 5835 5834 5833 5832 5831 5830 5829 5828 5827 5826 5825 5824 5823 5822 5820 5819 5818 5817 5816 5815 5814 5813 5812 5811 5809 5808 5807 5806 5806 5805 5804 5804
5829 5829 5830 5830 5829 5829 5829 5828 5828 5827 5827 5826 5825 5824 5823 5822 5821 5820 5819 5818 5817 5816 5815 5814 5813 5812 5810 5809 5808 5807 5806 5804 5803 5802 5801 5800 5799 5798 5797 5796 5795 5795 5794
5821 5821 5821 5821 5821 5821 5820 5819 5819 5818 5818 5817 5816 5815 5814 5813 5812 5811 5810 5809 5808 5806 5805 5803 5802 5801 5800 5798 5797 5796 5796 5795 5794 5792 5790 5790 5788 5787 5786 5785 5784 5783 5783
5813 5813 5812 5812 5811 5810 5810 5810 5809 5809 5808 5807 5806 5805 5804 5803 5802 5801 5800 5799 5798 5796 5794 5792 5791 5790 5789 5787 5785 5785 5783 5783 5782 5780 5779 5778 5776 5776 5774 5773 5773 5772 5771
5804 5804 5803 5802 5801 5801 5801 5800 5799 5798 5798 5797 5796 5795 5794 5792 5791 5789 5788 5788 5786 5784 5782 5780 5779 5778 5776 5775 5773 5771 5770 5769 5769 5767 5765 5765 5764 5763 5761 5761 5760 5759 5759
5796 5796 5795 5793 5792 5791 5791 5790 5789 5788 5787 5786 5785 5783 5782 5781 5779 5777 5776 5776 5774 5772 5769 5767 5766 5765 5763 5761 5758 5757 5755 5754 5754 5753 5750 5749 5749 5748 5747 5747 5746 5745 5745
5787 5786 5785 5784 5783 5782 5781 5780 5779 5777 5776 5775 5773 5771 5770 5769 5767 5765 5764 5762 5761 5759 5756 5754 5753 5751 5749 5746 5744 5741 5739 5738 5737 5738 5736 5733 5732 5731 5732 5732 5731 5730 5730